Location: Goudex
(43.3760°N, 0.9543°E)
Time: 11:14:12
(UTC+00:00)

Sich 1 - Pass Details

Date: 20 November 2019
Orbit: 595 x 625 km, 82.5° (Epoch: 11 December)

Event Time Altitude Azimuth Distance (km) Brightness Sun altitude
Rises 05:51:25 0° 173° (S) 2,822 6.8 -11.6°
Reaches altitude 10° 05:53:39 10° 167° (SSE) 1,925 6.0 -11.2°
Maximum altitude 05:57:44 48° 94° (E) 783 4.1 -10.5°
Drops below altitude 10° 06:01:52 10° 19° (NNE) 1,944 5.6 -9.8°
Sets 06:04:08 0° 14° (NNE) 2,854 6.4 -9.4°
